Simultaneous Nadir Overpasses (SNOs) Predictions

Prediction of SNOs between GOES-16 and NPP Satellite Orbit:

Table of predicted SNOs for the next 14.0 days since TLE Epoch: 1/27/2024
Index Date Time (GOES-16) GOES-16 Lat,Lon NPP Lat,Lon Distance(km) Time Diff (sec)
1 01/27/2024 06:17:52 -0.04, -75.20 -0.44, -73.52 192.99 80
2 01/28/2024 18:39:49 0.04, -75.22 -0.75, -78.82 410.29 80
3 01/29/2024 18:23:44 0.04, -75.23 0.28, -74.29 107.18 80
4 01/31/2024 06:45:31 -0.04, -75.24 0.93, -79.55 491.65 80
5 02/01/2024 06:24:07 -0.04, -75.25 -0.10, -75.03 25.90 80
6 02/03/2024 18:27:18 0.04, -75.28 -0.10, -75.79 58.71 80
7 02/04/2024 18:11:13 0.03, -75.29 0.93, -71.26 459.30 80
8 02/06/2024 06:33:01 -0.03, -75.31 0.26, -76.53 138.87 80
9 02/07/2024 06:11:35 0.00, -75.32 -0.72, -71.99 379.57 80
10 02/08/2024 18:33:31 -0.01, -75.34 -0.43, -77.30 222.43 80
11 02/09/2024 18:17:26 -0.01, -75.36 0.55, -72.76 295.86 80
